Weather in Bolshoy Keltey

Russia / Republic of Bashkortostan     55°58′10″N   54°32′25″E
temp.,
°C
wind,
m/s
gust,
m/s
humid.,
%
clouds,
%
prec.,
mm/h
press.,
hPa
HPBL,
m
28 february, sun
sun2823:00−11e61193100 1.1 1001360
02:00−12ene5994100 0.2 1001265
05:00−13ene599497 0.4 1001240
08:00−14ne599486 0.1 1002263
11:00−13nne699386 0.2 1003355
14:00−11nne579198 0.1 1004452
17:00−10n589299 0.2 1006536
20:00−12n5109494 0.1 1008310
1 march, mon
mon123:00−13n489592 0.1 1010252
02:00−14n379597 0.1 1012223
05:00−15n379694 0.2 1014192
08:00−18n339875 0.1 101571
11:00−16n359577 0.1 1017227
14:00−13nnw238794 0.0 1017467
17:00−13w349497 0.1 1018295
20:00−18w239691 0.1 101827
2 march, tue
tue223:00−20sw3310072 0.1 101827
02:00−21sw4610096 0.0 1016102
05:00−21s599695 0.0 1014201
08:00−18s61196100 0.0 1010281
11:00−14s71295100 0.7 1007428
14:00−11s71294100 0.9 1004537
17:00−9s71194100 1.6 1002557
20:00−8s71295100 1.3 1000495
3 march, wed
wed323:00−5s51196100 2.3 999406
02:00−3sw4997100 0.6 997361
05:00−3wsw5997100 1.0 998366
08:00−5wnw4796100 0.1 998247
11:00−6w469698 0.3 1000263
14:00−3wnw469396 0.3 1000484
17:00−3wnw578895 0.4 1001762
20:00−6wnw4993100 0.1 1002359
4 march, thu
thu423:00−10wnw3594100 0.1 100490
02:00−12w369781 0.0 1004119
05:00−13wsw349782 0.1 100582
08:00−13wsw479693 0.1 1005170
11:00−9sw589595 0.4 1005338
14:00−7sw6994100 0.1 1003443
17:00−5ssw71195100 0.6 1001696
20:00−6ssw91595100 1.3 997823